Time,TemperatureF,DewpointF,PressureIn,WindDirection,WindDirectionDegrees,WindSpeedMPH,WindSpeedGustMPH,Humidity,HourlyPrecipIn,Conditions,Clouds,dailyrainin,SolarRadiationWatts/m^2,SoftwareType,DateUTC
2013-09-20 00:07:00,53.5,51.0,29.72,North,355,3.0,4.0,90,0.00,,,0.00,0,weatherlink.com 1.10,2013-09-20 07:07:00,
2013-09-20 00:22:00,53.4,51.0,29.72,North,355,1.0,4.0,90,0.00,,,0.00,0,weatherlink.com 1.10,2013-09-20 07:22:00,
2013-09-20 00:37:00,53.9,51.0,29.72,North,355,2.0,3.0,89,0.00,,,0.00,0,weatherlink.com 1.10,2013-09-20 07:37:00,
2013-09-20 00:52:00,54.1,51.0,29.72,NE,55,0.0,3.0,88,0.00,,,0.00,0,weatherlink.com 1.10,2013-09-20 07:52:00,
2013-09-20 01:07:00,54.8,50.0,29.71,NE,47,1.0,3.0,85,0.00,,,0.00,0,weatherlink.com 1.10,2013-09-20 08:07:00,
2013-09-20 01:22:00,54.9,50.0,29.71,NNE,12,0.0,2.0,83,0.00,,,0.00,0,weatherlink.com 1.10,2013-09-20 08:22:00,
2013-09-20 01:37:00,54.7,50.0,29.71,NNE,12,0.0,0.0,84,0.00,,,0.00,0,weatherlink.com 1.10,2013-09-20 08:37:00,
2013-09-20 01:52:00,54.0,50.0,29.72,NNE,12,0.0,0.0,85,0.00,,,0.00,0,weatherlink.com 1.10,2013-09-20 08:52:00,
2013-09-20 02:07:00,53.8,50.0,29.71,NNE,12,0.0,0.0,86,0.00,,,0.00,0,weatherlink.com 1.10,2013-09-20 09:07:00,
2013-09-20 02:22:00,53.4,50.0,29.71,NNE,12,0.0,0.0,87,0.00,,,0.00,0,weatherlink.com 1.10,2013-09-20 09:22:00,
2013-09-20 02:37:00,53.0,50.0,29.71,NNE,12,0.0,0.0,88,0.00,,,0.00,0,weatherlink.com 1.10,2013-09-20 09:37:00,
2013-09-20 02:52:00,52.6,50.0,29.70,NNE,12,0.0,0.0,89,0.00,,,0.00,0,weatherlink.com 1.10,2013-09-20 09:52:00,
2013-09-20 03:07:00,52.2,49.0,29.70,NNE,12,0.0,0.0,90,0.00,,,0.00,0,weatherlink.com 1.10,2013-09-20 10:07:00,
2013-09-20 03:22:00,51.6,49.0,29.70,NNE,12,0.0,0.0,90,0.00,,,0.00,0,weatherlink.com 1.10,2013-09-20 10:22:00,
2013-09-20 03:37:00,51.2,49.0,29.70,NNE,12,0.0,3.0,91,0.00,,,0.00,0,weatherlink.com 1.10,2013-09-20 10:37:00,
2013-09-20 03:53:00,50.8,48.0,29.69,North,11,3.0,3.0,91,0.00,,,0.00,0,weatherlink.com 1.10,2013-09-20 10:53:00,
2013-09-20 04:08:00,50.6,49.0,29.69,North,11,2.0,4.0,93,0.00,,,0.00,0,weatherlink.com 1.10,2013-09-20 11:08:00,
2013-09-20 04:23:00,50.3,48.0,29.68,North,11,2.0,4.0,93,0.00,,,0.00,0,weatherlink.com 1.10,2013-09-20 11:23:00,
2013-09-20 04:38:00,50.2,48.0,29.68,North,11,3.0,5.0,93,0.00,,,0.00,0,weatherlink.com 1.10,2013-09-20 11:38:00,
2013-09-20 04:53:00,50.3,49.0,29.67,NNE,29,3.0,4.0,94,0.00,,,0.00,0,weatherlink.com 1.10,2013-09-20 11:53:00,
2013-09-20 05:08:00,50.2,48.0,29.67,NNE,28,2.0,3.0,93,0.00,,,0.00,0,weatherlink.com 1.10,2013-09-20 12:08:00,
2013-09-20 05:23:00,50.2,49.0,29.66,NNE,28,0.0,2.0,94,0.00,,,0.00,0,weatherlink.com 1.10,2013-09-20 12:23:00,
2013-09-20 05:38:00,50.3,49.0,29.66,NNE,28,1.0,2.0,94,0.00,,,0.00,0,weatherlink.com 1.10,2013-09-20 12:38:00,
2013-09-20 05:53:00,50.9,49.0,29.65,NNE,29,1.0,3.0,94,0.00,,,0.00,0,weatherlink.com 1.10,2013-09-20 12:53:00,
2013-09-20 06:08:00,51.0,49.0,29.65,NE,40,0.0,3.0,93,0.00,,,0.00,0,weatherlink.com 1.10,2013-09-20 13:08:00,
2013-09-20 06:23:00,50.6,49.0,29.65,NE,42,0.0,2.0,93,0.00,,,0.00,0,weatherlink.com 1.10,2013-09-20 13:23:00,
2013-09-20 06:38:00,51.2,49.0,29.65,NE,45,0.0,4.0,93,0.00,,,0.00,0,weatherlink.com 1.10,2013-09-20 13:38:00,
2013-09-20 06:53:00,51.4,49.0,29.64,NE,46,0.0,1.0,92,0.00,,,0.00,7,weatherlink.com 1.10,2013-09-20 13:53:00,
2013-09-20 07:08:00,51.4,49.0,29.64,NE,42,0.0,2.0,92,0.00,,,0.00,16,weatherlink.com 1.10,2013-09-20 14:08:00,
2013-09-20 07:23:00,51.4,50.0,29.64,NE,42,0.0,1.0,93,0.00,,,0.00,33,weatherlink.com 1.10,2013-09-20 14:23:00,
2013-09-20 07:38:00,51.8,50.0,29.63,East,88,1.0,4.0,93,0.00,,,0.00,47,weatherlink.com 1.10,2013-09-20 14:38:00,
2013-09-20 07:53:00,54.4,51.0,29.63,ENE,78,1.0,8.0,87,0.00,,,0.00,56,weatherlink.com 1.10,2013-09-20 14:53:00,
2013-09-20 08:08:00,56.6,51.0,29.64,SE,142,2.0,5.0,82,0.00,,,0.00,93,weatherlink.com 1.10,2013-09-20 15:08:00,
2013-09-20 08:23:00,58.1,53.0,29.64,SE,129,3.0,6.0,82,0.00,,,0.00,162,weatherlink.com 1.10,2013-09-20 15:23:00,
2013-09-20 08:38:00,59.3,53.0,29.62,ESE,113,4.0,5.0,79,0.00,,,0.00,193,weatherlink.com 1.10,2013-09-20 15:38:00,
2013-09-20 08:53:00,61.3,54.0,29.63,SE,146,4.0,9.0,76,0.00,,,0.00,142,weatherlink.com 1.10,2013-09-20 15:53:00,
2013-09-20 09:08:00,61.9,53.0,29.63,East,86,5.0,9.0,73,0.00,,,0.00,225,weatherlink.com 1.10,2013-09-20 16:08:00,
2013-09-20 09:23:00,62.6,53.0,29.62,SE,128,2.0,8.0,71,0.00,,,0.00,190,weatherlink.com 1.10,2013-09-20 16:23:00,
2013-09-20 09:39:00,63.2,52.0,29.61,ENE,64,0.0,9.0,68,0.00,,,0.00,371,weatherlink.com 1.10,2013-09-20 16:39:00,
2013-09-20 09:54:00,64.8,54.0,29.62,ESE,115,7.0,8.0,69,0.00,,,0.00,209,weatherlink.com 1.10,2013-09-20 16:54:00,
2013-09-20 10:09:00,65.2,54.0,29.61,East,92,1.0,7.0,67,0.00,,,0.00,468,weatherlink.com 1.10,2013-09-20 17:09:00,
2013-09-20 10:24:00,66.3,54.0,29.60,ESE,121,2.0,9.0,64,0.00,,,0.00,279,weatherlink.com 1.10,2013-09-20 17:24:00,
2013-09-20 10:39:00,67.3,55.0,29.61,SSE,154,8.0,10.0,64,0.00,,,0.00,341,weatherlink.com 1.10,2013-09-20 17:39:00,
2013-09-20 10:54:00,67.6,56.0,29.60,ESE,117,1.0,11.0,66,0.00,,,0.00,526,weatherlink.com 1.10,2013-09-20 17:54:00,
2013-09-20 11:09:00,69.2,56.0,29.60,ENE,76,7.0,13.0,63,0.00,,,0.00,543,weatherlink.com 1.10,2013-09-20 18:09:00,
2013-09-20 11:24:00,71.0,57.0,29.60,SE,134,5.0,12.0,61,0.00,,,0.00,605,weatherlink.com 1.10,2013-09-20 18:24:00,
2013-09-20 11:39:00,69.3,57.0,29.60,South,184,5.0,8.0,64,0.00,,,0.00,563,weatherlink.com 1.10,2013-09-20 18:39:00,
2013-09-20 11:54:00,66.9,57.0,29.59,South,178,2.0,7.0,71,0.00,,,0.00,455,weatherlink.com 1.10,2013-09-20 18:54:00,
2013-09-20 12:09:00,66.3,57.0,29.60,South,175,2.0,6.0,71,0.00,,,0.00,636,weatherlink.com 1.10,2013-09-20 19:09:00,
2013-09-20 12:24:00,67.6,59.0,29.60,SSW,195,5.0,7.0,73,0.00,,,0.00,643,weatherlink.com 1.10,2013-09-20 19:24:00,
2013-09-20 12:39:00,67.5,56.0,29.60,SSE,167,4.0,11.0,67,0.00,,,0.00,378,weatherlink.com 1.10,2013-09-20 19:39:00,
2013-09-20 12:54:00,67.9,57.0,29.59,SSW,210,6.0,9.0,69,0.00,,,0.00,520,weatherlink.com 1.10,2013-09-20 19:54:00,
2013-09-20 13:09:00,67.5,55.0,29.59,SSE,166,5.0,9.0,64,0.00,,,0.00,420,weatherlink.com 1.10,2013-09-20 20:09:00,
2013-09-20 13:24:00,67.7,56.0,29.58,SW,221,4.0,9.0,66,0.00,,,0.00,740,weatherlink.com 1.10,2013-09-20 20:24:00,
2013-09-20 13:39:00,68.3,57.0,29.58,SSE,153,4.0,7.0,67,0.00,,,0.00,610,weatherlink.com 1.10,2013-09-20 20:39:00,
2013-09-20 13:54:00,68.9,56.0,29.58,SSW,212,4.0,6.0,63,0.00,,,0.00,724,weatherlink.com 1.10,2013-09-20 20:54:00,
2013-09-20 14:09:00,69.2,55.0,29.58,WSW,252,6.0,8.0,62,0.00,,,0.00,540,weatherlink.com 1.10,2013-09-20 21:09:00,
2013-09-20 14:24:00,67.2,55.0,29.58,WSW,244,5.0,7.0,65,0.00,,,0.00,345,weatherlink.com 1.10,2013-09-20 21:24:00,
2013-09-20 14:39:00,65.9,54.0,29.58,WSW,250,4.0,7.0,66,0.00,,,0.00,374,weatherlink.com 1.10,2013-09-20 21:39:00,
2013-09-20 14:54:00,65.5,54.0,29.57,WSW,243,1.0,7.0,66,0.00,,,0.00,388,weatherlink.com 1.10,2013-09-20 21:54:00,
2013-09-20 15:09:00,65.8,54.0,29.57,WNW,287,1.0,6.0,66,0.00,,,0.00,508,weatherlink.com 1.10,2013-09-20 22:09:00,
2013-09-20 15:24:00,66.5,55.0,29.57,WNW,286,3.0,5.0,67,0.00,,,0.00,603,weatherlink.com 1.10,2013-09-20 22:24:00,
2013-09-20 15:39:00,67.7,55.0,29.57,West,268,3.0,7.0,65,0.00,,,0.00,566,weatherlink.com 1.10,2013-09-20 22:39:00,
2013-09-20 15:54:00,68.3,56.0,29.56,SE,128,2.0,5.0,65,0.00,,,0.00,401,weatherlink.com 1.10,2013-09-20 22:54:00,
2013-09-20 16:09:00,67.6,55.0,29.57,SSW,196,0.0,3.0,64,0.00,,,0.00,230,weatherlink.com 1.10,2013-09-20 23:09:00,
2013-09-20 16:24:00,67.9,55.0,29.57,WSW,251,0.0,3.0,63,0.00,,,0.00,190,weatherlink.com 1.10,2013-09-20 23:24:00,
2013-09-20 16:39:00,66.8,56.0,29.57,SE,142,3.0,4.0,68,0.00,,,0.00,315,weatherlink.com 1.10,2013-09-20 23:39:00,
2013-09-20 16:54:00,65.8,56.0,29.57,South,179,3.0,5.0,70,0.00,,,0.00,158,weatherlink.com 1.10,2013-09-20 23:54:00,
2013-09-20 17:09:00,64.4,56.0,29.57,South,179,1.0,3.0,74,0.00,,,0.00,146,weatherlink.com 1.10,2013-09-21 00:09:00,
2013-09-20 17:24:00,64.6,56.0,29.57,South,179,0.0,1.0,74,0.00,,,0.00,111,weatherlink.com 1.10,2013-09-21 00:24:00,
2013-09-20 17:39:00,64.7,56.0,29.58,SW,217,3.0,4.0,74,0.00,,,0.00,149,weatherlink.com 1.10,2013-09-21 00:39:00,
2013-09-20 17:54:00,64.5,56.0,29.58,West,261,3.0,5.0,73,0.00,,,0.00,74,weatherlink.com 1.10,2013-09-21 00:54:00,
2013-09-20 18:09:00,64.1,56.0,29.58,West,261,0.0,1.0,74,0.00,,,0.00,53,weatherlink.com 1.10,2013-09-21 01:09:00,
2013-09-20 18:24:00,63.7,56.0,29.59,West,271,0.0,4.0,75,0.00,,,0.00,19,weatherlink.com 1.10,2013-09-21 01:24:00,
2013-09-20 18:39:00,62.9,56.0,29.60,SSW,207,3.0,5.0,77,0.00,,,0.00,5,weatherlink.com 1.10,2013-09-21 01:39:00,
2013-09-20 18:54:00,61.6,56.0,29.61,SSE,168,1.0,4.0,81,0.00,,,0.00,0,weatherlink.com 1.10,2013-09-21 01:54:00,
2013-09-20 19:09:00,60.6,56.0,29.60,NE,51,2.0,3.0,86,0.01,,,0.01,0,weatherlink.com 1.10,2013-09-21 02:09:00,
2013-09-20 19:24:00,59.8,56.0,29.60,ENE,63,0.0,4.0,88,0.01,,,0.01,0,weatherlink.com 1.10,2013-09-21 02:24:00,
2013-09-20 19:39:00,58.9,56.0,29.61,ENE,62,3.0,3.0,90,0.02,,,0.02,0,weatherlink.com 1.10,2013-09-21 02:39:00,
2013-09-20 19:54:00,58.3,56.0,29.61,NE,52,2.0,4.0,91,0.02,,,0.02,0,weatherlink.com 1.10,2013-09-21 02:54:00,
2013-09-20 20:09:00,58.1,56.0,29.60,ENE,57,3.0,9.0,92,0.01,,,0.02,0,weatherlink.com 1.10,2013-09-21 03:09:00,
2013-09-20 20:24:00,58.4,56.0,29.60,NE,54,7.0,9.0,92,0.01,,,0.02,0,weatherlink.com 1.10,2013-09-21 03:24:00,
2013-09-20 20:39:00,58.6,56.0,29.61,ESE,103,10.0,11.0,91,0.00,,,0.02,0,weatherlink.com 1.10,2013-09-21 03:39:00,
2013-09-20 20:54:00,58.6,56.0,29.61,East,92,3.0,11.0,91,0.00,,,0.02,0,weatherlink.com 1.10,2013-09-21 03:54:00,
2013-09-20 21:09:00,58.4,56.0,29.61,SE,136,3.0,9.0,91,0.00,,,0.02,0,weatherlink.com 1.10,2013-09-21 04:09:00,
2013-09-20 21:24:00,58.4,56.0,29.61,ESE,122,9.0,13.0,91,0.00,,,0.02,0,weatherlink.com 1.10,2013-09-21 04:24:00,
2013-09-20 21:39:00,58.8,56.0,29.60,ESE,117,8.0,15.0,89,0.00,,,0.02,0,weatherlink.com 1.10,2013-09-21 04:39:00,
2013-09-20 21:54:00,58.9,56.0,29.60,ENE,78,11.0,15.0,89,0.00,,,0.02,0,weatherlink.com 1.10,2013-09-21 04:54:00,
2013-09-20 22:10:00,59.1,56.0,29.60,East,85,3.0,13.0,88,0.00,,,0.02,0,weatherlink.com 1.10,2013-09-21 05:10:00,
2013-09-20 22:24:00,59.1,56.0,29.60,ESE,103,7.0,13.0,88,0.00,,,0.02,0,weatherlink.com 1.10,2013-09-21 05:24:00,
2013-09-20 22:40:00,58.6,56.0,29.61,South,172,4.0,11.0,90,0.00,,,0.02,0,weatherlink.com 1.10,2013-09-21 05:40:00,
2013-09-20 22:55:00,58.6,56.0,29.62,SE,128,6.0,9.0,91,0.00,,,0.02,0,weatherlink.com 1.10,2013-09-21 05:55:00,
2013-09-20 23:10:00,58.3,56.0,29.62,SSE,164,5.0,8.0,91,0.00,,,0.02,0,weatherlink.com 1.10,2013-09-21 06:10:00,
2013-09-20 23:25:00,58.1,56.0,29.62,SE,146,4.0,9.0,92,0.00,,,0.02,0,weatherlink.com 1.10,2013-09-21 06:25:00,
2013-09-20 23:40:00,57.8,56.0,29.62,ESE,121,2.0,6.0,93,0.00,,,0.02,0,weatherlink.com 1.10,2013-09-21 06:40:00,
2013-09-20 23:55:00,57.7,56.0,29.63,ESE,115,5.0,7.0,93,0.00,,,0.02,0,weatherlink.com 1.10,2013-09-21 06:55:00,